Location: Unspecified
(0.0000°N, 0.0000°E)
Time: 08:34:12
(UTC+00:00)

ACS3 Solar Sail - Pass Details

Date: 06 November 2025
Orbit: 910 x 992 km, 97.3° (Epoch: 12 November)

Event Time Altitude Azimuth Distance (km) Brightness Sun altitude
Exits shadow 03:32:44 13° 201° (SSW) 2,529 3.9 -31.3°
Drops below altitude 10° 03:33:20 10° 200° (SSW) 2,752 4.1 -31.2°
Sets 03:35:51 0° 197° (SSW) 3,707 4.9 -30.6°
